Regional Weather Roundup
Issued by NWS Newport/Morehead, NC

Current Version | Previous Version | Text Only | Print | Product List | Glossary Off
Versions: 1 2 3 4 5 6 7 8 9 10 11 12 13 14 15 16 17 18 19 20 21 22 23 24 25 26 27 28 29 30 31 32 33 34 35 36 37 38 39 40 41 42 43 44 45 46 47 48 49 50
000 ASUS42 KMHX 240225 RWRMHX WEATHER ROUNDUP FOR EASTERN NORTH CAROLINA NATIONAL WEATHER SERVICE NEWPORT/MOREHEAD CITY NC 1000 PM EDT WED AUG 23 2017 NOTE: "FAIR" INDICATES FEW OR NO CLOUDS BELOW 12,000 FEET WITH NO SIGNIFICANT WEATHER AND/OR OBSTRUCTIONS TO VISIBILITY NCZ015>017-031-032-045>047-102-103-240300- NORTH COAST CITY SKY/WX TMP DP RH WIND PRES REMARKS EDENTON CLOUDY 75 73 93 CALM 29.89R ELIZABETH CITY FAIR 73 73 100 MISG 29.87R KITTY HAWK LGT RAIN 75 75 100 CALM 29.86R MANTEO LGT RAIN 74 73 94 NW6 29.88R $$ NCZ045>047-081-094-103-104-240300- CENTRAL COAST CITY SKY/WX TMP DP RH WIND PRES REMARKS FRISCO FAIR 81 79 94 SW7 29.86R $$ NCZ095-097-098-100-101-240300- SOUTHERN COAST CITY SKY/WX TMP DP RH WIND PRES REMARKS BEAUFORT CLOUDY 77 71 82 NW21G31 29.91R CEDAR ISLAND NOT AVBL JACKSONVILLE TSTM 72 72 100 N5 29.91R PINEY ISLAND N/A N/A N/A N/A NW14 29.87R WILMINGTON TSTM 73 70 90 N9G22 29.91R $$ NCZ011>013-027>030-043-044-078>080-089-090>093-098-240300- COASTAL PLAIN CITY SKY/WX TMP DP RH WIND PRES REMARKS AHOSKIE N/A 72 72 99 CALM 29.89R CLINTON CLOUDY 74 74 100 E3 29.90R ELIZABETHTOWN NOT AVBL GOLDSBORO MOCLDY 74 74 100 SE7 29.88R GREENVILLE LGT RAIN 73 72 94 S6 29.90R HAVELOCK TSTM 72 71 97 NE8 29.92R FOG KENANSVILLE RAIN 72 72 100 CALM 29.91R FOG KINSTON RAIN 73 72 94 SE9 29.90R NEW BERN RAIN 72 72 100 S5 29.91S FOG RICHLANDS RAIN 72 72 100 S7 29.92R ROCKY MOUNT FAIR 73 73 100 CALM 29.88R WASHINGTON LGT RAIN 72 71 95 CALM 29.88S WHITEVILLE HVY RAIN 73 71 95 S7 29.91R $$ AMZ130-135-150-152-154-156-158-170-250-252-270-ANZ085-086-088-633-658-670-240300- MARINE OBSERVATIONS STATION/POSITION TIME TEMP WIND PRES WAVE SWELL AIR SEA DIR/SP/G HT/PER HT/PER (UTC) (F) (DEG/KT/KT) (MB) (FT/S) (FT/S) CHESAPEAKE LIGHT NOT AVBL 64 E VA BEACH 0150 80 80 280/ 2/ 4 1010.5 3/ 9 3/ 9 DUCK 0200 77 66 300/ 3/ 6 1010.8 2 E DUCK 0200 74 N/A 2/ 9 OREGON INLET 0200 77 84 300/ 4/ 4 1010.8 13E OREGON INLT 0148 80 N/A 3/ 8 3/ 8 HATTERAS CG 0200 80 82 230/ 7/ 9 1011.1 DIAMOND BUOY 0150 84 84 230/ 14/ 16 1010.9 4/ 5 2/ 9 CAPE LOOKOUT 0200 82 240/ 11/ 14 1011.5 BEAUFORT LAB 0200 79 81 330/ 12/ 19 1012.2 30 SE NEW RVR IN 0208 81 84 250/ 16/ 21 1011.7 30 SE NEW RVR IN 0143 84 N/A 4/ 9 27 SE WRIGHTSVLE 0208 83 84 220/ 14/ 19 1011.7 5 SE WRIGHTSVLE 0208 78 84 330/ 19/ 31 1012.4 225 S CAPE HAT 0150 84 85 210/ 10/ 10 1012.5 3/ 9 2/ 9 41 SE CHARLESTON 0210 84 210/ 17/ 21 1011.6 $$

USA.gov is the U.S. government's official web portal to all federal, state and local government web resources and services.